Weather History for Belize / Phillip Goldston Intl. Airport, Belize

Change the Weather History Date:

Tuesday, October 30, 2012

  Actual Average Record
Temperature  
Mean Temperature 74 °F -  
Max Temperature 81 °F 85 °F - ()
Min Temperature 68 °F 71 °F - ()
Cooling Degree Days 10    
Growing Degree Days 24 (Base 50)    
Moisture  
Dew Point 65 °F    
Average Humidity 67    
Maximum Humidity 94    
Minimum Humidity 46    
Precipitation  
Precipitation 0.00 in 0.24 in - ()
Sea Level Pressure  
Sea Level Pressure 30.02 in    
Wind  
Wind Speed 5 mph ()    
Max Wind Speed 8 mph    
Max Gust Speed -    
Visibility 8.0 miles    
Events      
T = Trace of Precipitation, MM = Missing Value Source: Averaged Metar Reports

Daily Weather History Graph

Daily Weather History Graph

Search for Another Location

Airport:

Trip Planner

Search our weather history database for the weather conditions in past years. The results will help you decide how hot, cold, wet, or windy it might be!

Date:

Astronomy

Oct. 30, 2012 Rise Set
Actual Time 5:51 AM CST 5:22 PM CST
Civil Twilight 5:28 AM CST 5:44 PM CST
Nautical Twilight 5:03 AM CST 6:10 PM CST
Astronomical Twilight 4:37 AM CST 6:35 PM CST
Moon 6:03 PM CST (10/30) 6:27 AM CST (10/30)
Length of Visible Light 12h 15m
Length of Day
11h 30m
Full, 99% of the Moon is Illuminated
Oct 30
Full
Nov 6
Last Quarter
Nov 13
New
Nov 20
First Quarter
Nov 28
Full

Hourly Weather History & Observations

Time (CST) Temp. Heat Index Dew Point Humidity Pressure Visibility Wind Dir Wind Speed Gust Speed Precip Events Conditions
3:00 AM 70 °F - 67 °F 88% 30.01 in 12 mi WNW 5.8 mph - -   Partly Cloudy
5:00 AM 69.8 °F - 68.0 °F 94% 30.01 in 6.2 mi NW 3.5 mph - N/A   Mostly Cloudy
6:00 AM 69 °F - 66 °F 87% 30.03 in 12 mi Calm Calm - -   Mostly Cloudy
6:00 AM 69.8 °F - 66.2 °F 88% 30.01 in 6.2 mi Calm Calm - N/A   Mostly Cloudy
7:00 AM 69.8 °F - 66.2 °F 88% 30.04 in 6.2 mi WNW 4.6 mph - N/A   Partly Cloudy
8:00 AM 73.4 °F - 66.2 °F 78% 30.04 in 6.2 mi NNW 5.8 mph - N/A   Partly Cloudy
9:00 AM 77 °F - 64 °F 55% 30.08 in 12 mi North 8.1 mph - -   Scattered Clouds
9:00 AM 77.0 °F - 64.4 °F 65% 30.07 in 6.2 mi North 8.1 mph - N/A   Scattered Clouds
10:00 AM 78.8 °F - 62.6 °F 57% 30.06 in 6.2 mi North 6.9 mph - N/A   Scattered Clouds
11:00 AM 80.6 °F 81.8 °F 62.6 °F 54% 30.03 in 6.2 mi North 6.9 mph - N/A   Partly Cloudy
12:00 PM 81 °F - 65 °F 50% 30.02 in 12 mi ENE 8.1 mph - -   Partly Cloudy
12:00 PM 80.6 °F 82.7 °F 66.2 °F 61% 30.01 in 6.2 mi ENE 8.1 mph - N/A   Scattered Clouds
1:00 PM 80.6 °F 82.7 °F 66.2 °F 61% 29.99 in 6.2 mi ENE 8.1 mph - N/A   Scattered Clouds
2:00 PM 82.4 °F 83.9 °F 64.4 °F 54% 29.97 in 6.2 mi NE 6.9 mph - N/A   Scattered Clouds
3:00 PM 81 °F - 64 °F 46% 29.97 in 12 mi ENE 8.1 mph - -   Mostly Cloudy
3:00 PM 80.6 °F 82.3 °F 64.4 °F 58% 29.97 in 6.2 mi ENE 8.1 mph - N/A   Scattered Clouds
4:00 PM 80.6 °F 82.3 °F 64.4 °F 58% 29.97 in 6.2 mi NE 6.9 mph - N/A   Scattered Clouds
5:00 PM 78.8 °F - 64.4 °F 61% 29.99 in 6.2 mi ENE 5.8 mph - N/A   Mostly Cloudy
6:00 PM 77 °F - 66 °F 62% 30.01 in 12 mi East 3.5 mph - -   Mostly Cloudy
6:00 PM 77.0 °F - 66.2 °F 69% 30.00 in 6.2 mi East 3.5 mph - N/A   Mostly Cloudy
7:00 PM 78.8 °F - 66.2 °F 65% 30.03 in 6.2 mi NE 2.3 mph - N/A   Mostly Cloudy
9:00 PM 74 °F - 69 °F 81% 30.06 in 12 mi Calm Calm - -   Partly Cloudy